Вернуться в каталог

STARLINK-37032

АктивенСвязьVLEO
NORAD 68181·PAYLOAD·🇺🇸 United States

Запущен Mar 14, 2026 с Vandenberg Space Force Base

Loading…

Ближайшие Пролёты (ближайшие 24 часа)

TLE

СвежийSource: CelesTrak SupGP

Эпоха: Sep 15, 2026, 02:40 UTC

1 68181C 26050Q   26258.11159722  .00011963  00000+0  35352-3 0  2586
2 68181  53.1560 103.0527 0001262  86.7728  99.7608 15.34379262    15

Отслеживайте STARLINK-37032 в реальном времени с AllMySat

Download on the App Store